www.pogodaiklimat.ru

Погода и климат >> Архив погоды >> Украина >> Купянск


ПОГОДА в Купянске

  • Прогноз погоды в Купянске
  • Монитор погоды в Купянске

АРХИВ ПОГОДЫ в Купянске

Время (UTC), дата Ветер
(напр.,м/с)
 
Видим.   Явления Облачность Т
(С)
Тd
(С)
f
(%)
Тe
(С)
Тes
(С)
Комфортность P
(гПа)
Po
(гПа)
Тmin
(С)
Tmax
(С)
R
(мм)
R24
(мм)
S
(см)
03 13.09 штиль 0 10 км ясно +7.7 +5.7 87 +7 +7 1026.8 1016.5
06 13.09 штиль 0 50 км 1/0
[Cs]
+16.5 +7.4 55 +16 +22 1026.5 1016.6 +7.6
09 13.09 Ю 2 50 км 1/1 600 м
[Cu hum]
+26.5 +4.4 24 +25 +34 комфорт 1024.8 1015.2
12 13.09 З 1 50 км 3/1 600 м
[Cu hum Ci fib]
+28.1 +2.8 20 +26 +33 жарко 1022.8 1013.3
15 13.09 Ю 1 50 км 3/0
[Ci fib]
+26.4 +4.6 25 +26 +26 жарко 1021.7 1012.1
18 13.09 штиль 0 10 км ясно +16.8 +8.6 58 +17 +17 1022.1 1012.2 +29.0
21 13.09 ЮВ 1 10 км ясно +11.8 +6.3 69 +12 +12 1021.6 1011.5
00 14.09 В 1 10 км 8/0
[Ac cast]
+10.2 +5.6 73 +10 +10 1020.8 1010.7
03 14.09 ЮВ 1 10 км 10/0
[Ac und]
+9.6 +7.5 87 +9 +9 1019.9 1009.8
06 14.09 Ю 2 50 км 5/0
[Cs]
+17.2 +7.7 54 +18 +21 1019.3 1009.4 +9.4
09 14.09 З 1 50 км 8/0
[Ci]
+25.4 +5.4 28 +25 +35 комфорт 1017.6 1008.0
12 14.09 З 2 50 км 10/5 600 м
[Cu hum Ac und]
+26.2 +6.8 29 +26 +27 жарко 1016.4 1006.9
15 14.09 С 4 50 км 10/4 600 м
[Sc Ac und]
+21.8 +8.0 41 +23 +23 комфорт 1017.2 1007.5
18 14.09 С 1 10 км в посл. час ливневой дождь 10/10 600 м
[Cb cap]
+16.0 +13.7 86 +17 +17 1019.6 1009.7 +26.5 2
21 14.09 С 2 10 км 5/0
[Cs]
+14.4 +12.0 85 +14 +14 1020.8 1010.9
00 15.09 С 2 10 км ясно +9.8 +7.7 87 +8 +8 1021.9 1011.8
03 15.09 штиль 0 10 км 4/0
[Cs]
+5.5 +4.1 91 +4 +4 1022.5 1012.2
06 15.09 штиль 0 50 км 5/0
[Cs]
+11.4 +7.0 74 +11 +16 1023.0 1012.9 +5.5
09 15.09 С 3 50 км 5/5 1000 м
[Cu med, cong]
+18.3 +5.0 41 +19 +23 1021.8 1012.0
12 15.09 С 3 50 км 5/5 1000 м
[Cu med, cong]
+20.8 +1.6 28 +21 +24 комфорт 1020.2 1010.4
15 15.09 ЮЗ 1 50 км 3/0
[Ci fib]
+19.7 +1.3 29 +21 +21 комфорт 1019.2 1009.4
18 15.09 штиль 0 10 км ясно +13.4 +5.7 60 +13 +13 1019.3 1009.3 +21.9
21 15.09 штиль 0 10 км ясно +10.4 +3.8 64 +10 +10 1018.6 1008.5
00 16.09 штиль 0 10 км ясно +10.2 +5.6 73 +10 +10 1017.2 1007.1
03 16.09 штиль 0 10 км ясно +9.8 +5.9 77 +9 +9 1015.3 1005.2
06 16.09 Ю 2 50 км 3/0
[Ac cast]
+16.0 +2.4 40 +16 +19 1013.2 1003.4 +8.5
09 16.09 ЮЗ 4 50 км 4/0
[Ci fib]
+22.4 +2.3 27 +22 +28 комфорт 1010.5 1000.9
12 16.09 ЮЗ 3 50 км 4/0
[Ac lent]
+25.0 +1.7 22 +24 +27 комфорт 1008.1 998.6
15 16.09 ЮЗ 3 20 км 4/0
[Ac lent]
+24.2 +3.3 26 +24 +24 комфорт 1006.8 997.3
18 16.09 Ю 1 10 км 8/3 1000 м
[Sc Ac trans]
+21.1 +6.3 38 +22 +22 комфорт 1007.2 997.6 +25.0
21 16.09 Ю 1 10 км 8/0
[Ac trans]
+18.0 +9.2 56 +19 +19 1007.1 997.4
00 17.09 ЮЗ 1 10 км 8/0
[Ac trans]
+17.2 +10.9 66 +18 +18 1006.3 996.6
03 17.09 ЮЗ 1 10 км 9/0
[Ac und]
+16.0 +9.5 65 +17 +17 1006.3 996.5
06 17.09 ЮЗ 1 50 км 9/3 600 м
[Sc Ac trans]
+18.2 +6.0 45 +19 +21 1006.2 996.5 +13.9
09 17.09 ЮЗ 3 50 км 10/0
[Ac As]
+18.2 +5.8 44 +18 +21 1006.9 997.2
12 17.09 ЮЗ 2 50 км 10/0
[Ac As]
+18.3 +2.7 35 +19 +21 1006.5 996.8
15 17.09 З 3 50 км 1/0
[Ci fib]
+18.3 +3.3 37 +19 +19 1005.9 996.2
18 17.09 штиль 0 10 км ясно +12.6 +5.0 60 +12 +12 1006.7 996.8 +19.0
21 17.09 ЮЗ 1 10 км 5/0
[Ac trans]
+11.7 +7.6 76 +12 +12 1007.1 997.2
00 18.09 Ю 1 10 км ясно +10.0 +7.3 83 +10 +10 1006.7 996.7
03 18.09 штиль 0 10 км 1/0
[Ac lent]
+7.6 +6.3 91 +7 +7 1005.5 995.4
06 18.09 Ю 2 50 км 10/10 600 м
[Sc]
+12.6 +8.6 77 +12 +12 1004.2 994.3 +7.4
09 18.09 Ю 3 10 км слаб. ливневой дождь 10/10 600 м
[Cb cap]
+12.7 +10.2 85 +11 +11 1003.9 994.1
12 18.09 Ю 3 10 км слаб. ливневой дождь 10/10 600 м
[Cb cap]
+15.4 +9.2 67 +15 +15 1001.8 992.1
15 18.09 ЮЗ 6 20 км {ливн. осадки} 4/4 600 м
[Sc]
+14.8 -1.2 33 +13 +13 1004.0 994.2
18 18.09 З 3 10 км {ливн. осадки} ясно +13.2 -0.3 39 +12 +12 1006.8 996.9 +16.2 2
21 18.09 З 3 10 км ясно +9.4 +1.4 57 +7 +7 1008.7 998.7
00 19.09 ЮЗ 3 10 км ясно +8.2 +1.9 64 +6 +6 1011.0 1000.9
03 19.09 ЮЗ 2 10 км 3/3 600 м
[Sc]
+7.2 +3.9 80 +5 +5 1013.3 1003.2
06 19.09 ЮЗ 2 50 км 8/0
[Ac As]
+9.2 +4.7 73 +8 +9 1015.5 1005.4 +6.7
09 19.09 ЮЗ 2 50 км 10/10 600 м
[Sc]
+12.9 +4.0 55 +12 +12 1016.9 1006.9
12 19.09 ЮЗ 3 50 км 8/8 600 м
[Sc]
+15.4 +3.3 44 +15 +16 1016.4 1006.5
15 19.09 ЮЗ 1 50 км 8/8 600 м
[Sc diur, vesp]
+15.0 +4.2 48 +16 +16 1016.4 1006.5
18 19.09 ЮЗ 1 10 км 3/0
[Ac trans]
+10.6 +4.3 65 +11 +11 1017.9 1007.8 +16.4
21 19.09 Ю 1 10 км ясно +6.6 +3.2 79 +6 +6 1017.8 1007.6
00 20.09 ЮВ 1 10 км 3/0
[Ac trans]
+4.6 +2.4 86 +3 +3 1018.0 1007.7

 

Местоположение метеостанции Купянск (Харьковская область, Украина): широта 49.63 долгота 37.70 высота над уровнем моря 83 м.

В архиве по умолчанию представлена погода в Купянске за последнюю неделю. Архивные данные за месяц целиком и за предыдущие месяцы, начиная с января 2011 года, Вы можете получить, выбрав интересующий диапазон дат из раскрывающегося списка и нажав кнопку "Ввод!".


*Определитесь, кто Вы:
робот инопланетянин человек

Внимание! Время в таблицах - всемирное. Для получения местного времени необходимо прибавить поправку, которая равна 2 ч.

Смотрите также архив погоды в соседних городах и на ближайших метеорологических станциях:

Погода в Сватово (Луганская область, Украина) (41 км)
Погода в Новопскове (Луганская область, Украина) (46 км)
Погода в Троицком (Луганская область, Украина) (51 км)
Погода в Великом Бурлуке (Харьковская область, Украина) (54 км)
Погода в Изюме (Харьковская область, Украина) (58 км)
Погода в Валуйках (Белгородская область, Россия) (72 км)
Погода в Комсомольском (Донецкая область, Украина) (84 км)
Погода в Артемовске (Донецкая область, Украина) (116 км)
Погода в Харькове (Харьковская область, Украина) (119 км)
Погода в Новом Осколе (Белгородская область, Россия) (125 км)

Пояснения к столбцам:

Ветер - указаны скорость ветра в м/с - средняя за 10 мин, порывы в срок и между сроками (в фигурных скобках) и направление, откуда дует ветер: С - северный, СВ - северо-восточный, В - восточный, ЮВ - юго-восточный, Ю - южный, ЮЗ - юго-западный, З - западный, СЗ - северо-западный.
Видимость - горизонтальная дальность видимости в метрах или километрах. При видимости от 1 до 10 км при отсутствии осадков обычно наблюдается дымка, при ухудшении видимости до 1 км и менее - туман. В сухую погоду видимость может ухудшаться дымом, пылью или мглою.
Явления - указаны атмосферные явления, наблюдавшиеся в срок или в последний час перед сроком; фигурными скобками обозначены явления, наблюдавшиеся между сроками (за 1-3 часа до срока); квадратными скобками обозначены град или гололедные отложения с указанием их диаметра в мм.
Облачность - указаны через наклонную черту общая и нижняя облачность в баллах и высота нижней границы облаков в метрах; квадратными скобками обозначены формы облаков: Ci - перистые, Cs - перисто-слоистые, Cc - перисто-кучевые, Ac - высококучевые, As - высокослоистые, Sc - слоисто-кучевые, Ns - слоисто-дождевые, Cu - кучевые, Cb - кучево-дождевые. Подробнее классификацию облаков см. в Атласе облаков (PDF).
T - Температура воздуха - температура, измеренная на высоте 2 м над землей.
Td - Температура точки росы - температура, при понижении до которой содержащийся в воздухе водяной пар достигнет насыщения.
f - Относительная влажность воздуха - влажноcть воздуха, измеренная на высоте 2 м над землей.
Te - Эффективная температура - температура, которую ощущает одетый по сезону человек в тени. Характеристика душности погоды. При расчете учитывается влияние влажности воздуха и скорости ветра на теплоощущения человека.
Tes - Эффективная температура на солнце - температура, которую ощущает человек, с поправкой на солнечный нагрев. Характеристика знойности погоды. Зависит от высоты солнца над горизонтом, облачности и скорости ветра. Ночью, в пасмурную погоду, а также при ветре 12 м/с и более поправка равна нулю.
P - Атмосферное давление - приведенное к уровню моря атмосферное давление.
Po - Атмосферное давление - измеренное на уровне метеостанции атмосферное давление.
Tmin - Минимальная температура - минимум температуры воздуха на высоте 2 м над землей.
Tmax - Максимальная температура - максимум температуры воздуха на высоте 2 м над землей.
R - Количество осадков - Количество выпавших осадков за период времени, мм. При наведении курсора мыши на число - период времени, за который выпало указанное количество осадков.
R24 - Количество осадков - Количество выпавших осадков за 24 часа, мм.
S - Снежный покров - Высота снежного покрова, см. При наведении курсора мыши на число - состояние снежного покрова и степень покрытия местности в баллах.